Medford, WI

6:58 AM CST on December 09, 2016 (GMT -0600)
Taylor County

Weather History for KMDZ - April, 2013

Change the Weather History Date:

Monday, April 1, 2013

  Actual Average Record
Temperature  
Mean Temperature 24 °F -  
Max Temperature 30 °F 44 °F 77 °F (1986)
Min Temperature 17 °F 25 °F 4 °F (1975)
Degree Days  
Heating Degree Days 42    
Moisture  
Dew Point 8 °F    
Average Humidity 51    
Maximum Humidity 68    
Minimum Humidity 37    
Precipitation  
Precipitation 0.00 in - - ()
Sea Level Pressure  
Sea Level Pressure 30.03 in    
Wind  
Wind Speed 11 mph (WNW)    
Max Wind Speed 23 mph    
Max Gust Speed 28 mph    
Visibility 10 miles    
Events      
Averages and records for this station are not official NWS values.
T = Trace of Precipitation, MM = Missing Value Source: NWS Daily Summary

Daily Weather History Graph

Daily Weather History Graph

Search for Another Location

Airport or City:

Trip Planner

Search our weather history database for the weather conditions in past years. The results will help you decide how hot, cold, wet, or windy it might be!

Date:

Astronomy

Apr. 01, 2013 Rise Set
Actual Time 6:41 AM CDT 7:29 PM CDT
Civil Twilight 6:11 AM CDT 7:59 PM CDT
Nautical Twilight 5:36 AM CDT 8:34 PM CDT
Astronomical Twilight 4:59 AM CDT 9:11 PM CDT
Moon 12:49 AM CDT (4/1) 10:16 AM CDT (4/1)
Length of Visible Light 13h 47m
Length of Day
12h 48m
Waning Gibbous, 67% of the Moon is Illuminated
Apr 1
Waning Gibbous
Apr 2
Last Quarter
Apr 10
New
Apr 18
First Quarter
Apr 25
Full

Hourly Weather History & Observations

Time (CDT) Temp. Windchill Dew Point Humidity Pressure Visibility Wind Dir Wind Speed Gust Speed Precip Events Conditions
12:15 AM 24.8 °F 14.6 °F 8.6 °F 50% 29.91 in 10.0 mi NNW 10.4 mph 16.1 mph N/A   Scattered Clouds
12:35 AM 24.8 °F 15.3 °F 10.4 °F 54% 29.92 in 10.0 mi NW 9.2 mph - N/A   Scattered Clouds
12:55 AM 24.8 °F 14.6 °F 10.4 °F 54% 29.93 in 10.0 mi NNW 10.4 mph - N/A   Mostly Cloudy
1:15 AM 24.8 °F 17.9 °F 10.4 °F 54% 29.93 in 10.0 mi NW 5.8 mph - N/A   Overcast
1:35 AM 24.8 °F 17.9 °F 10.4 °F 54% 29.93 in 10.0 mi NNW 5.8 mph - N/A   Overcast
1:55 AM 24.8 °F 13.4 °F 8.6 °F 50% 29.94 in 10.0 mi NNW 12.7 mph 16.1 mph N/A   Overcast
2:15 AM 24.8 °F 13.4 °F 6.8 °F 46% 29.94 in 10.0 mi NNW 12.7 mph 17.3 mph N/A   Overcast
2:35 AM 23.0 °F 12.4 °F 6.8 °F 50% 29.95 in 10.0 mi NNW 10.4 mph 19.6 mph N/A   Overcast
2:55 AM 23.0 °F 14.7 °F 8.6 °F 54% 29.95 in 10.0 mi NNW 6.9 mph - N/A   Overcast
3:15 AM 21.2 °F 9.5 °F 5.0 °F 50% 29.96 in 10.0 mi NW 11.5 mph 18.4 mph N/A   Scattered Clouds
3:35 AM 21.2 °F 9.5 °F 5.0 °F 50% 29.96 in 10.0 mi NNW 11.5 mph - N/A   Clear
3:55 AM 21.2 °F 10.9 °F 5.0 °F 50% 29.96 in 10.0 mi NW 9.2 mph - N/A   Clear
4:15 AM 21.2 °F 11.7 °F 6.8 °F 54% 29.97 in 10.0 mi NW 8.1 mph - N/A   Mostly Cloudy
4:35 AM 19.4 °F 11.5 °F 8.6 °F 63% 29.97 in 10.0 mi WNW 5.8 mph - N/A   Mostly Cloudy
4:55 AM 19.4 °F 9.5 °F 8.6 °F 63% 29.98 in 10.0 mi WNW 8.1 mph - N/A   Mostly Cloudy
5:15 AM 19.4 °F 6.6 °F 6.8 °F 58% 29.98 in 10.0 mi NW 12.7 mph 17.3 mph N/A   Mostly Cloudy
5:35 AM 19.4 °F 7.9 °F 6.8 °F 58% 29.99 in 10.0 mi NW 10.4 mph - N/A   Overcast
5:55 AM 19.4 °F 10.4 °F 6.8 °F 58% 29.99 in 10.0 mi WNW 6.9 mph - N/A   Scattered Clouds
6:15 AM 17.6 °F 8.2 °F 6.8 °F 63% 30.00 in 10.0 mi WNW 6.9 mph - N/A   Scattered Clouds
6:35 AM 19.4 °F 8.6 °F 6.8 °F 58% 30.00 in 10.0 mi NW 9.2 mph - N/A   Mostly Cloudy
6:55 AM 17.6 °F 7.3 °F 6.8 °F 63% 30.01 in 10.0 mi West 8.1 mph - N/A   Scattered Clouds
7:15 AM 17.6 °F 9.3 °F 6.8 °F 63% 30.02 in 10.0 mi West 5.8 mph - N/A   Clear
7:35 AM 17.6 °F 8.2 °F 8.6 °F 68% 30.03 in 10.0 mi West 6.9 mph - N/A   Scattered Clouds
7:55 AM 19.4 °F 9.5 °F 10.4 °F 68% 30.03 in 10.0 mi WNW 8.1 mph - N/A   Mostly Cloudy
8:15 AM 21.2 °F 8.9 °F 8.6 °F 58% 30.04 in 10.0 mi NW 12.7 mph 19.6 mph N/A   Scattered Clouds
8:35 AM 21.2 °F 7.3 °F 8.6 °F 58% 30.04 in 10.0 mi WNW 16.1 mph 20.7 mph N/A   Clear
8:55 AM 21.2 °F 8.3 °F 8.6 °F 58% 30.04 in 10.0 mi WNW 13.8 mph - N/A   Clear
9:15 AM 21.2 °F 9.5 °F 10.4 °F 63% 30.04 in 10.0 mi WNW 11.5 mph 18.4 mph N/A   Scattered Clouds
9:35 AM 23.0 °F 11.7 °F 10.4 °F 59% 30.05 in 10.0 mi WNW 11.5 mph - N/A   Mostly Cloudy
9:55 AM 21.2 °F 7.3 °F 8.6 °F 58% 30.05 in 10.0 mi WNW 16.1 mph - N/A   Mostly Cloudy
10:15 AM 23.0 °F 9.2 °F 8.6 °F 54% 30.05 in 10.0 mi NW 17.3 mph 21.9 mph N/A   Scattered Clouds
10:35 AM 23.0 °F 10.6 °F 10.4 °F 59% 30.06 in 10.0 mi West 13.8 mph 20.7 mph N/A   Scattered Clouds
10:55 AM 24.8 °F 14.6 °F 10.4 °F 54% 30.06 in 10.0 mi WNW 10.4 mph 18.4 mph N/A   Scattered Clouds
11:15 AM 24.8 °F 14.6 °F 10.4 °F 54% 30.06 in 10.0 mi West 10.4 mph - N/A   Clear
11:35 AM 24.8 °F 13.4 °F 10.4 °F 54% 30.07 in 10.0 mi WNW 12.7 mph 21.9 mph N/A   Scattered Clouds
11:55 AM 24.8 °F 12.9 °F 8.6 °F 50% 30.07 in 10.0 mi West 13.8 mph 20.7 mph N/A   Scattered Clouds
12:15 PM 26.6 °F 14.7 °F 10.4 °F 51% 30.07 in 10.0 mi WNW 15.0 mph - N/A   Clear
12:35 PM 26.6 °F 15.2 °F 10.4 °F 51% 30.07 in 10.0 mi WNW 13.8 mph 23.0 mph N/A   Scattered Clouds
12:55 PM 26.6 °F 15.7 °F 8.6 °F 47% 30.07 in 10.0 mi West 12.7 mph 19.6 mph N/A   Clear
1:15 PM 26.6 °F 15.7 °F 10.4 °F 51% 30.07 in 10.0 mi WNW 12.7 mph 20.7 mph N/A   Clear
1:35 PM 26.6 °F 14.7 °F 10.4 °F 51% 30.06 in 10.0 mi WNW 15.0 mph 24.2 mph N/A   Scattered Clouds
1:55 PM 26.6 °F 15.7 °F 8.6 °F 47% 30.06 in 10.0 mi WNW 12.7 mph 24.2 mph N/A   Scattered Clouds
2:15 PM 28.4 °F 14.4 °F 8.6 °F 43% 30.06 in 10.0 mi West 23.0 mph 27.6 mph N/A   Scattered Clouds
2:35 PM 28.4 °F 15.1 °F 8.6 °F 43% 30.06 in 10.0 mi West 20.7 mph - N/A   Scattered Clouds
2:55 PM 28.4 °F 15.8 °F 8.6 °F 43% 30.06 in 10.0 mi WNW 18.4 mph 21.9 mph N/A   Scattered Clouds
3:15 PM 28.4 °F 16.6 °F 8.6 °F 43% 30.06 in 10.0 mi West 16.1 mph 21.9 mph N/A   Scattered Clouds
3:35 PM 30.2 °F 17.8 °F 6.8 °F 37% 30.06 in 10.0 mi WNW 19.6 mph 24.2 mph N/A   Scattered Clouds
3:55 PM 30.2 °F 17.8 °F 6.8 °F 37% 30.06 in 10.0 mi West 19.6 mph 23.0 mph N/A   Scattered Clouds
4:15 PM 28.4 °F 18.0 °F 6.8 °F 40% 30.05 in 10.0 mi WNW 12.7 mph 26.5 mph N/A   Scattered Clouds
4:35 PM 30.2 °F 19.3 °F 8.6 °F 40% 30.05 in 10.0 mi West 15.0 mph 18.4 mph N/A   Scattered Clouds
4:55 PM 30.2 °F 19.3 °F 6.8 °F 37% 30.05 in 10.0 mi WNW 15.0 mph 25.3 mph N/A   Scattered Clouds
5:15 PM 30.2 °F 18.5 °F 6.8 °F 37% 30.05 in 10.0 mi West 17.3 mph 24.2 mph N/A   Clear
5:35 PM 30.2 °F 17.1 °F 8.6 °F 40% 30.06 in 10.0 mi WNW 21.9 mph 26.5 mph N/A   Clear
5:55 PM 30.2 °F 17.1 °F 6.8 °F 37% 30.06 in 10.0 mi WNW 21.9 mph 26.5 mph N/A   Clear
6:15 PM 30.2 °F 19.3 °F 6.8 °F 37% 30.06 in 10.0 mi WNW 15.0 mph 20.7 mph N/A   Clear
6:35 PM 28.4 °F 17.5 °F 6.8 °F 40% 30.06 in 10.0 mi WNW 13.8 mph - N/A   Clear
6:55 PM 28.4 °F 15.8 °F 6.8 °F 40% 30.06 in 10.0 mi WNW 18.4 mph 24.2 mph N/A   Clear
7:15 PM 28.4 °F 17.5 °F 6.8 °F 40% 30.07 in 10.0 mi WNW 13.8 mph 21.9 mph N/A   Clear
7:35 PM 28.4 °F 19.7 °F 6.8 °F 40% 30.07 in 10.0 mi WNW 9.2 mph 17.3 mph N/A   Clear
7:55 PM 26.6 °F 19.1 °F 6.8 °F 43% 30.07 in 10.0 mi WNW 6.9 mph - N/A   Clear
8:15 PM 26.6 °F 19.1 °F 6.8 °F 43% 30.07 in 10.0 mi West 6.9 mph - N/A   Clear
8:35 PM 26.6 °F 21.2 °F 6.8 °F 43% 30.08 in 10.0 mi West 4.6 mph - N/A   Clear
8:55 PM 26.6 °F 22.6 °F 6.8 °F 43% 30.08 in 10.0 mi West 3.5 mph - N/A   Clear
9:15 PM 26.6 °F 22.6 °F 6.8 °F 43% 30.09 in 10.0 mi West 3.5 mph - N/A   Clear
9:35 PM 24.8 °F 19.1 °F 6.8 °F 46% 30.09 in 10.0 mi West 4.6 mph - N/A   Clear
9:55 PM 24.8 °F 19.1 °F 6.8 °F 46% 30.09 in 10.0 mi West 4.6 mph - N/A   Clear
10:15 PM 24.8 °F 19.1 °F 6.8 °F 46% 30.09 in 10.0 mi West 4.6 mph - N/A   Clear
10:35 PM 23.0 °F 18.4 °F 6.8 °F 50% 30.10 in 10.0 mi WSW 3.5 mph - N/A   Clear
10:55 PM 21.2 °F 14.9 °F 6.8 °F 54% 30.10 in 10.0 mi WSW 4.6 mph - N/A   Clear
11:15 PM 21.2 °F 14.9 °F 8.6 °F 58% 30.10 in 10.0 mi West 4.6 mph - N/A   Clear
11:35 PM 21.2 °F 13.6 °F 10.4 °F 63% 30.10 in 10.0 mi West 5.8 mph - N/A   Clear
11:55 PM 21.2 °F 13.6 °F 10.4 °F 63% 30.10 in 10.0 mi West 5.8 mph - N/A   Clear